Time,TemperatureF,DewpointF,PressureIn,WindDirection,WindDirectionDegrees,WindSpeedMPH,WindSpeedGustMPH,Humidity,HourlyPrecipIn,Conditions,Clouds,dailyrainin,SoftwareType,DateUTC
2013-04-02 00:03:00,52.2,50.5,30.25,North,0,0.0,0.0,94,0.00,,,0.00,WUHU216HW,2013-04-02 07:03:00,
2013-04-02 00:08:00,52.2,50.5,30.25,North,0,0.0,0.0,94,0.00,,,0.00,WUHU216HW,2013-04-02 07:08:00,
2013-04-02 00:13:00,52.2,50.5,30.25,North,0,0.0,0.0,94,0.00,,,0.00,WUHU216HW,2013-04-02 07:13:00,
2013-04-02 00:19:00,52.2,50.5,30.25,North,0,0.0,0.0,94,0.00,,,0.00,WUHU216HW,2013-04-02 07:19:00,
2013-04-02 00:24:00,52.2,50.5,30.25,North,0,0.0,0.0,94,0.00,,,0.00,WUHU216HW,2013-04-02 07:24:00,
2013-04-02 00:29:00,52.2,50.5,30.25,North,0,0.0,0.0,94,0.00,,,0.00,WUHU216HW,2013-04-02 07:29:00,
2013-04-02 00:34:00,52.4,50.4,30.26,North,0,0.0,0.0,93,0.00,,,0.00,WUHU216HW,2013-04-02 07:34:00,
2013-04-02 00:39:00,52.4,50.4,30.26,North,0,0.0,0.0,93,0.00,,,0.00,WUHU216HW,2013-04-02 07:39:00,
2013-04-02 00:44:00,52.4,50.4,30.26,North,0,0.0,0.0,93,0.00,,,0.00,WUHU216HW,2013-04-02 07:44:00,
2013-04-02 00:49:00,52.4,50.4,30.26,North,0,0.0,0.0,93,0.00,,,0.00,WUHU216HW,2013-04-02 07:49:00,
2013-04-02 00:54:00,52.4,50.4,30.26,North,0,0.0,0.0,93,0.00,,,0.00,WUHU216HW,2013-04-02 07:54:00,
2013-04-02 00:59:00,52.4,50.4,30.26,North,0,0.0,0.0,93,0.00,,,0.00,WUHU216HW,2013-04-02 07:59:00,
2013-04-02 01:04:00,52.4,50.4,30.26,North,0,0.0,0.0,93,0.00,,,0.00,WUHU216HW,2013-04-02 08:04:00,
2013-04-02 01:09:00,52.4,50.4,30.26,North,0,0.0,0.0,93,0.00,,,0.00,WUHU216HW,2013-04-02 08:09:00,
2013-04-02 01:14:00,52.4,50.4,30.26,North,0,0.0,0.0,93,0.00,,,0.00,WUHU216HW,2013-04-02 08:14:00,
2013-04-02 01:19:00,52.4,50.4,30.26,North,0,0.0,0.0,93,0.00,,,0.00,WUHU216HW,2013-04-02 08:19:00,
2013-04-02 01:24:00,52.4,50.4,30.26,North,0,0.0,0.0,93,0.00,,,0.00,WUHU216HW,2013-04-02 08:24:00,
2013-04-02 01:29:00,52.4,50.4,30.26,North,0,0.0,0.0,93,0.00,,,0.00,WUHU216HW,2013-04-02 08:29:00,
2013-04-02 01:34:00,52.4,50.0,30.26,North,0,0.0,0.0,92,0.00,,,0.00,WUHU216HW,2013-04-02 08:34:00,
2013-04-02 01:39:00,52.4,50.0,30.26,North,0,0.0,0.0,92,0.00,,,0.00,WUHU216HW,2013-04-02 08:39:00,
2013-04-02 01:44:00,52.4,50.0,30.26,North,0,0.0,0.0,92,0.00,,,0.00,WUHU216HW,2013-04-02 08:44:00,
2013-04-02 01:49:00,52.4,50.0,30.26,North,0,0.0,0.0,92,0.00,,,0.00,WUHU216HW,2013-04-02 08:49:00,
2013-04-02 01:54:00,52.2,49.9,30.26,North,0,0.0,0.0,92,0.00,,,0.00,WUHU216HW,2013-04-02 08:54:00,
2013-04-02 01:59:00,52.2,49.9,30.26,North,0,0.0,0.0,92,0.00,,,0.00,WUHU216HW,2013-04-02 08:59:00,
2013-04-02 02:04:00,52.2,49.9,30.27,North,0,0.0,0.0,92,0.00,,,0.00,WUHU216HW,2013-04-02 09:04:00,
2013-04-02 02:09:00,52.4,50.0,30.27,North,0,0.0,0.0,92,0.00,,,0.00,WUHU216HW,2013-04-02 09:09:00,
2013-04-02 02:14:00,52.2,49.9,30.27,North,0,0.0,0.0,92,0.00,,,0.00,WUHU216HW,2013-04-02 09:14:00,
2013-04-02 02:19:00,52.2,49.9,30.27,North,0,0.0,0.0,92,0.00,,,0.00,WUHU216HW,2013-04-02 09:19:00,
2013-04-02 02:24:00,52.2,49.9,30.26,North,0,0.0,0.0,92,0.00,,,0.00,WUHU216HW,2013-04-02 09:24:00,
2013-04-02 02:29:00,52.2,49.9,30.26,North,0,0.0,0.0,92,0.00,,,0.00,WUHU216HW,2013-04-02 09:29:00,
2013-04-02 02:34:00,52.2,50.2,30.26,North,0,0.0,0.0,93,0.00,,,0.00,WUHU216HW,2013-04-02 09:34:00,
2013-04-02 02:39:00,52.0,50.1,30.26,North,0,0.0,0.0,93,0.00,,,0.00,WUHU216HW,2013-04-02 09:39:00,
2013-04-02 02:44:00,51.8,49.5,30.26,North,0,0.0,0.0,92,0.00,,,0.00,WUHU216HW,2013-04-02 09:44:00,
2013-04-02 02:49:00,51.5,48.9,30.26,North,0,0.0,0.0,91,0.00,,,0.00,WUHU216HW,2013-04-02 09:49:00,
2013-04-02 02:54:00,51.1,48.5,30.26,North,0,0.0,0.0,91,0.00,,,0.00,WUHU216HW,2013-04-02 09:54:00,
2013-04-02 02:59:00,50.9,48.3,30.26,North,0,0.0,0.0,91,0.00,,,0.00,WUHU216HW,2013-04-02 09:59:00,
2013-04-02 03:04:00,50.8,48.2,30.26,North,0,0.0,0.0,91,0.00,,,0.00,WUHU216HW,2013-04-02 10:04:00,
2013-04-02 03:09:00,50.6,48.2,30.26,North,0,0.0,0.0,92,0.00,,,0.00,WUHU216HW,2013-04-02 10:09:00,
2013-04-02 03:14:00,50.6,48.0,30.26,North,0,0.0,0.0,91,0.00,,,0.00,WUHU216HW,2013-04-02 10:14:00,
2013-04-02 03:19:00,50.4,48.1,30.26,North,0,0.0,0.0,92,0.00,,,0.00,WUHU216HW,2013-04-02 10:19:00,
2013-04-02 03:24:00,50.2,47.9,30.26,North,0,0.0,0.0,92,0.00,,,0.00,WUHU216HW,2013-04-02 10:24:00,
2013-04-02 03:29:00,50.0,47.7,30.26,North,0,0.0,0.0,92,0.00,,,0.00,WUHU216HW,2013-04-02 10:29:00,
2013-04-02 03:34:00,50.0,47.7,30.26,North,0,0.0,0.0,92,0.00,,,0.00,WUHU216HW,2013-04-02 10:34:00,
2013-04-02 03:39:00,50.0,47.7,30.26,North,0,0.0,0.0,92,0.00,,,0.00,WUHU216HW,2013-04-02 10:39:00,
2013-04-02 03:44:00,50.0,47.7,30.26,North,0,0.0,0.0,92,0.00,,,0.00,WUHU216HW,2013-04-02 10:44:00,
2013-04-02 03:49:00,50.0,47.7,30.26,North,0,0.0,0.0,92,0.00,,,0.00,WUHU216HW,2013-04-02 10:49:00,
2013-04-02 03:54:00,50.0,47.7,30.26,North,0,0.0,0.0,92,0.00,,,0.00,WUHU216HW,2013-04-02 10:54:00,
2013-04-02 03:59:00,50.2,47.9,30.26,North,0,0.0,0.0,92,0.00,,,0.00,WUHU216HW,2013-04-02 10:59:00,
2013-04-02 04:04:00,50.4,48.4,30.26,North,0,0.0,0.0,93,0.00,,,0.00,WUHU216HW,2013-04-02 11:04:00,
2013-04-02 04:09:00,50.6,48.2,30.26,North,0,0.0,0.0,92,0.00,,,0.00,WUHU216HW,2013-04-02 11:09:00,
2013-04-02 04:14:00,50.8,48.8,30.25,North,0,0.0,0.0,93,0.00,,,0.00,WUHU216HW,2013-04-02 11:14:00,
2013-04-02 04:19:00,50.8,48.4,30.25,North,0,0.0,0.0,92,0.00,,,0.00,WUHU216HW,2013-04-02 11:19:00,
2013-04-02 04:24:00,50.8,48.4,30.25,North,0,0.0,0.0,92,0.00,,,0.00,WUHU216HW,2013-04-02 11:24:00,
2013-04-02 04:29:00,50.6,48.6,30.26,North,0,0.0,0.0,93,0.00,,,0.00,WUHU216HW,2013-04-02 11:29:00,
2013-04-02 04:34:00,50.6,48.6,30.26,North,0,0.0,0.0,93,0.00,,,0.00,WUHU216HW,2013-04-02 11:34:00,
2013-04-02 04:39:00,50.6,48.6,30.26,North,0,0.0,0.0,93,0.00,,,0.00,WUHU216HW,2013-04-02 11:39:00,
2013-04-02 04:44:00,50.8,48.8,30.26,North,0,0.0,0.0,93,0.00,,,0.00,WUHU216HW,2013-04-02 11:44:00,
2013-04-02 04:49:00,50.8,48.8,30.26,North,0,0.0,0.0,93,0.00,,,0.00,WUHU216HW,2013-04-02 11:49:00,
2013-04-02 04:54:00,50.8,48.8,30.26,North,0,0.0,0.0,93,0.00,,,0.00,WUHU216HW,2013-04-02 11:54:00,
2013-04-02 04:59:00,50.8,48.8,30.25,North,0,0.0,0.0,93,0.00,,,0.00,WUHU216HW,2013-04-02 11:59:00,
2013-04-02 05:04:00,50.8,48.8,30.25,North,0,0.0,0.0,93,0.00,,,0.00,WUHU216HW,2013-04-02 12:04:00,
2013-04-02 05:09:00,50.8,48.8,30.26,North,0,0.0,0.0,93,0.00,,,0.00,WUHU216HW,2013-04-02 12:09:00,
2013-04-02 05:14:00,50.8,48.8,30.26,North,0,0.0,0.0,93,0.00,,,0.00,WUHU216HW,2013-04-02 12:14:00,
2013-04-02 05:19:00,50.8,48.8,30.26,North,0,0.0,0.0,93,0.00,,,0.00,WUHU216HW,2013-04-02 12:19:00,
2013-04-02 05:24:00,50.8,48.8,30.26,North,0,0.0,0.0,93,0.00,,,0.00,WUHU216HW,2013-04-02 12:24:00,
2013-04-02 05:29:00,50.8,48.8,30.26,North,0,0.0,0.0,93,0.00,,,0.00,WUHU216HW,2013-04-02 12:29:00,
2013-04-02 05:34:00,50.6,48.6,30.26,North,0,0.0,0.0,93,0.00,,,0.00,WUHU216HW,2013-04-02 12:34:00,
2013-04-02 05:39:00,50.4,48.4,30.25,North,0,0.0,0.0,93,0.00,,,0.00,WUHU216HW,2013-04-02 12:39:00,
2013-04-02 05:44:00,50.4,48.4,30.25,North,0,0.0,0.0,93,0.00,,,0.00,WUHU216HW,2013-04-02 12:44:00,
2013-04-02 05:49:00,50.2,48.3,30.25,North,0,0.0,0.0,93,0.00,,,0.00,WUHU216HW,2013-04-02 12:49:00,
2013-04-02 05:54:00,50.0,48.1,30.25,North,0,0.0,0.0,93,0.00,,,0.00,WUHU216HW,2013-04-02 12:54:00,
2013-04-02 05:59:00,49.9,47.9,30.25,North,0,0.0,0.0,93,0.00,,,0.00,WUHU216HW,2013-04-02 12:59:00,
2013-04-02 06:04:00,49.7,47.7,30.25,North,0,0.0,0.0,93,0.00,,,0.00,WUHU216HW,2013-04-02 13:04:00,
2013-04-02 06:09:00,49.3,47.3,30.26,North,0,0.0,0.0,93,0.00,,,0.00,WUHU216HW,2013-04-02 13:09:00,
2013-04-02 06:14:00,49.0,47.0,30.25,North,0,0.0,0.0,93,0.00,,,0.00,WUHU216HW,2013-04-02 13:14:00,
2013-04-02 06:19:00,48.8,46.9,30.25,North,0,0.0,0.0,93,0.00,,,0.00,WUHU216HW,2013-04-02 13:19:00,
2013-04-02 06:24:00,48.8,46.9,30.25,North,0,0.0,0.0,93,0.00,,,0.00,WUHU216HW,2013-04-02 13:24:00,
2013-04-02 06:29:00,48.6,46.7,30.26,North,0,0.0,0.0,93,0.00,,,0.00,WUHU216HW,2013-04-02 13:29:00,
2013-04-02 06:34:00,48.4,46.5,30.26,North,0,0.0,0.0,93,0.00,,,0.00,WUHU216HW,2013-04-02 13:34:00,
2013-04-02 06:39:00,48.4,46.5,30.26,North,0,0.0,0.0,93,0.00,,,0.00,WUHU216HW,2013-04-02 13:39:00,
2013-04-02 06:44:00,48.2,46.4,30.26,North,0,0.0,0.0,93,0.00,,,0.00,WUHU216HW,2013-04-02 13:44:00,
2013-04-02 06:49:00,48.2,46.4,30.26,North,0,0.0,0.0,93,0.00,,,0.00,WUHU216HW,2013-04-02 13:49:00,
2013-04-02 06:54:00,48.2,46.4,30.26,North,0,0.0,0.0,93,0.00,,,0.00,WUHU216HW,2013-04-02 13:54:00,
2013-04-02 06:59:00,48.4,46.5,30.26,North,0,0.0,0.0,93,0.00,,,0.00,WUHU216HW,2013-04-02 13:59:00,
2013-04-02 07:04:00,48.4,46.5,30.26,North,0,0.0,0.0,93,0.00,,,0.00,WUHU216HW,2013-04-02 14:04:00,
2013-04-02 07:09:00,48.4,46.5,30.26,North,0,0.0,0.0,93,0.00,,,0.00,WUHU216HW,2013-04-02 14:09:00,
2013-04-02 07:14:00,48.4,46.5,30.26,North,0,0.0,0.0,93,0.00,,,0.00,WUHU216HW,2013-04-02 14:14:00,
2013-04-02 07:19:00,48.6,47.0,30.26,North,0,0.0,0.0,94,0.00,,,0.00,WUHU216HW,2013-04-02 14:19:00,
2013-04-02 07:24:00,48.8,47.2,30.26,North,0,0.0,0.0,94,0.00,,,0.00,WUHU216HW,2013-04-02 14:24:00,
2013-04-02 07:29:00,49.1,47.4,30.26,North,0,0.0,0.0,94,0.00,,,0.00,WUHU216HW,2013-04-02 14:29:00,
2013-04-02 07:34:00,49.3,47.6,30.26,North,0,0.0,0.0,94,0.00,,,0.00,WUHU216HW,2013-04-02 14:34:00,
2013-04-02 07:39:00,49.5,47.8,30.26,North,0,0.0,0.0,94,0.00,,,0.00,WUHU216HW,2013-04-02 14:39:00,
2013-04-02 07:44:00,49.9,48.2,30.27,North,0,0.0,0.0,94,0.00,,,0.00,WUHU216HW,2013-04-02 14:44:00,
2013-04-02 07:49:00,49.9,48.2,30.27,North,0,0.0,0.0,94,0.00,,,0.00,WUHU216HW,2013-04-02 14:49:00,
2013-04-02 07:54:00,50.0,48.3,30.27,North,0,0.0,0.0,94,0.00,,,0.00,WUHU216HW,2013-04-02 14:54:00,
2013-04-02 07:59:00,50.4,48.7,30.27,North,0,0.0,0.0,94,0.00,,,0.00,WUHU216HW,2013-04-02 14:59:00,
2013-04-02 08:04:00,50.4,48.7,30.28,North,0,0.0,0.0,94,0.00,,,0.00,WUHU216HW,2013-04-02 15:04:00,
2013-04-02 08:09:00,50.8,49.1,30.28,North,0,0.0,0.0,94,0.00,,,0.00,WUHU216HW,2013-04-02 15:09:00,
2013-04-02 08:14:00,51.5,49.8,30.28,North,0,0.0,0.0,94,0.00,,,0.00,WUHU216HW,2013-04-02 15:14:00,
2013-04-02 08:19:00,53.3,51.8,30.28,North,0,0.0,0.0,95,0.00,,,0.00,WUHU216HW,2013-04-02 15:19:00,
2013-04-02 08:24:00,55.1,53.6,30.28,North,0,0.0,0.0,95,0.00,,,0.00,WUHU216HW,2013-04-02 15:24:00,
2013-04-02 08:29:00,57.6,55.6,30.28,North,0,0.0,0.0,93,0.00,,,0.00,WUHU216HW,2013-04-02 15:29:00,
2013-04-02 08:34:00,59.8,57.4,30.28,North,0,0.0,0.0,92,0.00,,,0.00,WUHU216HW,2013-04-02 15:34:00,
2013-04-02 08:39:00,61.6,58.1,30.27,North,0,0.0,0.0,88,0.00,,,0.00,WUHU216HW,2013-04-02 15:39:00,
2013-04-02 08:45:00,62.3,57.1,30.27,North,0,0.0,0.0,83,0.00,,,0.00,WUHU216HW,2013-04-02 15:45:00,
2013-04-02 08:50:00,62.6,56.7,30.27,North,0,0.0,0.0,81,0.00,,,0.00,WUHU216HW,2013-04-02 15:50:00,
2013-04-02 08:55:00,63.0,57.1,30.26,North,0,0.0,0.0,81,0.00,,,0.00,WUHU216HW,2013-04-02 15:55:00,
2013-04-02 09:00:00,62.6,56.0,30.26,North,0,0.0,0.0,79,0.00,,,0.00,WUHU216HW,2013-04-02 16:00:00,
2013-04-02 09:05:00,61.2,54.0,30.26,North,0,0.0,0.0,77,0.00,,,0.00,WUHU216HW,2013-04-02 16:05:00,
2013-04-02 09:10:00,59.8,52.9,30.26,North,0,0.0,0.0,78,0.00,,,0.00,WUHU216HW,2013-04-02 16:10:00,
2013-04-02 09:15:00,58.7,52.6,30.26,North,0,0.0,0.0,80,0.00,,,0.00,WUHU216HW,2013-04-02 16:15:00,
2013-04-02 09:20:00,58.3,52.2,30.26,North,0,0.0,0.0,80,0.00,,,0.00,WUHU216HW,2013-04-02 16:20:00,
2013-04-02 09:25:00,58.3,52.6,30.26,North,0,0.0,0.0,81,0.00,,,0.00,WUHU216HW,2013-04-02 16:25:00,
2013-04-02 09:30:00,58.7,52.2,30.26,North,0,0.0,0.0,79,0.00,,,0.00,WUHU216HW,2013-04-02 16:30:00,
2013-04-02 09:35:00,58.7,52.2,30.26,North,0,0.0,0.0,79,0.00,,,0.00,WUHU216HW,2013-04-02 16:35:00,
2013-04-02 09:40:00,58.9,52.4,30.27,North,0,0.0,0.0,79,0.00,,,0.00,WUHU216HW,2013-04-02 16:40:00,
2013-04-02 09:45:00,59.0,52.6,30.27,North,0,0.0,0.0,79,0.00,,,0.00,WUHU216HW,2013-04-02 16:45:00,
2013-04-02 09:50:00,59.4,53.3,30.27,North,0,0.0,0.0,80,0.00,,,0.00,WUHU216HW,2013-04-02 16:50:00,
2013-04-02 09:55:00,59.8,53.3,30.26,North,0,0.0,0.0,79,0.00,,,0.00,WUHU216HW,2013-04-02 16:55:00,
2013-04-02 10:00:00,60.5,53.3,30.26,North,0,0.0,0.0,77,0.00,,,0.00,WUHU216HW,2013-04-02 17:00:00,
2013-04-02 10:05:00,61.0,53.1,30.26,North,0,0.0,0.0,75,0.00,,,0.00,WUHU216HW,2013-04-02 17:05:00,
2013-04-02 10:10:00,61.6,53.6,30.27,North,0,0.0,0.0,75,0.00,,,0.00,WUHU216HW,2013-04-02 17:10:00,
2013-04-02 10:15:00,61.7,53.4,30.27,North,0,0.0,0.0,74,0.00,,,0.00,WUHU216HW,2013-04-02 17:15:00,
2013-04-02 10:20:00,62.1,53.7,30.27,North,0,0.0,0.0,74,0.00,,,0.00,WUHU216HW,2013-04-02 17:20:00,
2013-04-02 10:25:00,62.5,53.6,30.26,North,0,0.0,0.0,73,0.00,,,0.00,WUHU216HW,2013-04-02 17:25:00,
2013-04-02 10:30:00,62.6,53.8,30.26,North,0,0.0,0.0,73,0.00,,,0.00,WUHU216HW,2013-04-02 17:30:00,
2013-04-02 10:35:00,62.8,54.0,30.27,North,0,0.0,0.0,73,0.00,,,0.00,WUHU216HW,2013-04-02 17:35:00,
2013-04-02 10:40:00,63.0,53.8,30.27,North,0,0.0,0.0,72,0.00,,,0.00,WUHU216HW,2013-04-02 17:40:00,
2013-04-02 10:45:00,63.4,54.9,30.27,North,0,0.0,0.0,74,0.00,,,0.00,WUHU216HW,2013-04-02 17:45:00,
2013-04-02 10:50:00,63.5,54.4,30.26,North,0,0.0,0.0,72,0.00,,,0.00,WUHU216HW,2013-04-02 17:50:00,
2013-04-02 10:55:00,64.1,55.6,30.27,North,0,0.0,0.0,74,0.00,,,0.00,WUHU216HW,2013-04-02 17:55:00,
2013-04-02 11:00:00,64.4,55.3,30.26,North,0,0.0,0.0,72,0.00,,,0.00,WUHU216HW,2013-04-02 18:00:00,
2013-04-02 11:05:00,64.4,55.3,30.26,North,0,0.0,0.0,72,0.00,,,0.00,WUHU216HW,2013-04-02 18:05:00,
2013-04-02 11:10:00,65.2,55.9,30.26,North,0,0.0,0.0,72,0.00,,,0.00,WUHU216HW,2013-04-02 18:10:00,
2013-04-02 11:15:00,66.4,56.3,30.26,North,0,0.0,0.0,70,0.00,,,0.00,WUHU216HW,2013-04-02 18:15:00,
2013-04-02 11:20:00,66.6,55.7,30.27,North,0,0.0,0.0,68,0.00,,,0.00,WUHU216HW,2013-04-02 18:20:00,
2013-04-02 11:25:00,68.0,57.1,30.27,North,0,0.0,0.0,68,0.00,,,0.00,WUHU216HW,2013-04-02 18:25:00,
2013-04-02 11:30:00,69.1,58.1,30.27,North,0,0.0,0.0,68,0.00,,,0.00,WUHU216HW,2013-04-02 18:30:00,
2013-04-02 11:35:00,69.5,57.2,30.27,North,0,0.0,0.0,65,0.00,,,0.00,WUHU216HW,2013-04-02 18:35:00,
2013-04-02 11:40:00,69.8,57.5,30.26,North,0,0.0,0.0,65,0.00,,,0.00,WUHU216HW,2013-04-02 18:40:00,
2013-04-02 11:45:00,70.0,57.7,30.26,North,0,0.0,0.0,65,0.00,,,0.00,WUHU216HW,2013-04-02 18:45:00,
2013-04-02 11:50:00,70.2,57.9,30.26,North,0,0.0,0.0,65,0.00,,,0.00,WUHU216HW,2013-04-02 18:50:00,
2013-04-02 11:56:00,69.5,57.2,30.26,North,0,0.0,0.0,65,0.00,,,0.00,WUHU216HW,2013-04-02 18:56:00,
2013-04-02 12:01:00,68.6,56.4,30.26,North,0,0.0,0.0,65,0.00,,,0.00,WUHU216HW,2013-04-02 19:01:00,
2013-04-02 12:06:00,67.9,55.6,30.26,North,0,0.0,0.0,65,0.00,,,0.00,WUHU216HW,2013-04-02 19:06:00,
2013-04-02 12:11:00,66.8,55.0,30.26,North,0,0.0,0.0,66,0.00,,,0.00,WUHU216HW,2013-04-02 19:11:00,
2013-04-02 12:16:00,66.2,54.9,30.26,North,0,0.0,0.0,67,0.00,,,0.00,WUHU216HW,2013-04-02 19:16:00,
2013-04-02 12:21:00,65.7,54.8,30.26,North,0,0.0,0.0,68,0.00,,,0.00,WUHU216HW,2013-04-02 19:21:00,
2013-04-02 12:26:00,65.0,54.2,30.26,North,0,0.0,0.0,68,0.00,,,0.00,WUHU216HW,2013-04-02 19:26:00,
2013-04-02 12:32:00,65.0,55.0,30.26,North,0,0.0,0.0,70,0.00,,,0.00,WUHU216HW,2013-04-02 19:32:00,
2013-04-02 12:37:00,65.7,55.3,30.26,North,0,0.0,0.0,69,0.00,,,0.00,WUHU216HW,2013-04-02 19:37:00,
2013-04-02 12:42:00,65.5,54.6,30.26,North,0,0.0,0.0,68,0.00,,,0.00,WUHU216HW,2013-04-02 19:42:00,
2013-04-02 12:48:00,65.5,54.6,30.25,North,0,0.0,0.0,68,0.00,,,0.00,WUHU216HW,2013-04-02 19:48:00,
2013-04-02 12:53:00,65.3,54.6,30.26,North,0,0.0,0.0,68,0.00,,,0.00,WUHU216HW,2013-04-02 19:53:00,
2013-04-02 12:58:00,65.7,54.8,30.25,North,0,0.0,0.0,68,0.00,,,0.00,WUHU216HW,2013-04-02 19:58:00,
2013-04-02 13:03:00,65.9,54.5,30.25,North,0,0.0,0.0,67,0.00,,,0.00,WUHU216HW,2013-04-02 20:03:00,
2013-04-02 13:08:00,65.9,54.2,30.25,North,0,0.0,0.0,66,0.00,,,0.00,WUHU216HW,2013-04-02 20:08:00,
2013-04-02 13:13:00,65.7,54.8,30.25,North,0,0.0,0.0,68,0.00,,,0.00,WUHU216HW,2013-04-02 20:13:00,
2013-04-02 13:18:00,65.9,54.5,30.25,North,0,0.0,0.0,67,0.00,,,0.00,WUHU216HW,2013-04-02 20:18:00,
2013-04-02 13:23:00,66.4,55.5,30.24,North,0,0.0,0.0,68,0.00,,,0.00,WUHU216HW,2013-04-02 20:23:00,
2013-04-02 13:28:00,67.0,56.1,30.24,North,0,0.0,0.0,68,0.00,,,0.00,WUHU216HW,2013-04-02 20:28:00,
2013-04-02 13:33:00,67.0,55.6,30.24,North,0,0.0,0.0,67,0.00,,,0.00,WUHU216HW,2013-04-02 20:33:00,
2013-04-02 13:38:00,66.8,55.0,30.24,North,0,0.0,0.0,66,0.00,,,0.00,WUHU216HW,2013-04-02 20:38:00,
2013-04-02 13:43:00,66.6,54.8,30.24,North,0,0.0,0.0,66,0.00,,,0.00,WUHU216HW,2013-04-02 20:43:00,
2013-04-02 13:48:00,65.9,54.2,30.24,North,0,0.0,0.0,66,0.00,,,0.00,WUHU216HW,2013-04-02 20:48:00,
2013-04-02 13:53:00,65.3,54.6,30.24,North,0,0.0,0.0,68,0.00,,,0.00,WUHU216HW,2013-04-02 20:53:00,
2013-04-02 13:58:00,65.3,54.6,30.23,North,0,0.0,0.0,68,0.00,,,0.00,WUHU216HW,2013-04-02 20:58:00,
2013-04-02 14:03:00,65.2,54.7,30.23,North,0,0.0,0.0,69,0.00,,,0.00,WUHU216HW,2013-04-02 21:03:00,
2013-04-02 14:08:00,64.4,54.5,30.23,North,0,0.0,0.0,70,0.00,,,0.00,WUHU216HW,2013-04-02 21:08:00,
2013-04-02 14:13:00,64.4,54.5,30.23,North,0,0.0,0.0,70,0.00,,,0.00,WUHU216HW,2013-04-02 21:13:00,
2013-04-02 14:18:00,64.6,54.3,30.23,North,0,0.0,0.0,69,0.00,,,0.00,WUHU216HW,2013-04-02 21:18:00,
2013-04-02 14:23:00,65.0,54.6,30.23,North,0,0.0,0.0,69,0.00,,,0.00,WUHU216HW,2013-04-02 21:23:00,
2013-04-02 14:28:00,64.8,54.9,30.22,North,0,0.0,0.0,70,0.00,,,0.00,WUHU216HW,2013-04-02 21:28:00,
2013-04-02 14:33:00,64.6,54.3,30.22,North,0,0.0,0.0,69,0.00,,,0.00,WUHU216HW,2013-04-02 21:33:00,
2013-04-02 14:38:00,64.1,54.2,30.23,North,0,0.0,0.0,70,0.00,,,0.00,WUHU216HW,2013-04-02 21:38:00,
2013-04-02 14:44:00,63.9,54.0,30.23,North,0,0.0,0.0,70,0.00,,,0.00,WUHU216HW,2013-04-02 21:44:00,
2013-04-02 14:49:00,63.9,54.0,30.23,North,0,0.0,0.0,70,0.00,,,0.00,WUHU216HW,2013-04-02 21:49:00,
2013-04-02 14:54:00,64.1,54.2,30.23,North,0,0.0,0.0,70,0.00,,,0.00,WUHU216HW,2013-04-02 21:54:00,
2013-04-02 14:59:00,64.3,54.4,30.23,North,0,0.0,0.0,70,0.00,,,0.00,WUHU216HW,2013-04-02 21:59:00,
2013-04-02 15:04:00,63.7,53.8,30.23,North,0,0.0,0.0,70,0.00,,,0.00,WUHU216HW,2013-04-02 22:04:00,
2013-04-02 15:09:00,63.7,54.2,30.23,North,0,0.0,0.0,71,0.00,,,0.00,WUHU216HW,2013-04-02 22:09:00,
2013-04-02 15:14:00,63.9,54.4,30.23,North,0,0.0,0.0,71,0.00,,,0.00,WUHU216HW,2013-04-02 22:14:00,
2013-04-02 15:19:00,63.9,54.4,30.23,North,0,0.0,0.0,71,0.00,,,0.00,WUHU216HW,2013-04-02 22:19:00,
2013-04-02 15:24:00,63.9,54.4,30.23,North,0,0.0,0.0,71,0.00,,,0.00,WUHU216HW,2013-04-02 22:24:00,
2013-04-02 15:29:00,64.1,54.5,30.22,North,0,0.0,0.0,71,0.00,,,0.00,WUHU216HW,2013-04-02 22:29:00,
2013-04-02 15:34:00,64.4,54.9,30.22,North,0,0.0,0.0,71,0.00,,,0.00,WUHU216HW,2013-04-02 22:34:00,
2013-04-02 15:39:00,64.6,54.7,30.22,North,0,0.0,0.0,70,0.00,,,0.00,WUHU216HW,2013-04-02 22:39:00,
2013-04-02 15:44:00,64.1,54.2,30.22,North,0,0.0,0.0,70,0.00,,,0.00,WUHU216HW,2013-04-02 22:44:00,
2013-04-02 15:50:00,63.9,54.0,30.22,North,0,0.0,0.0,70,0.00,,,0.00,WUHU216HW,2013-04-02 22:50:00,
2013-04-02 15:55:00,63.9,54.4,30.21,North,0,0.0,0.0,71,0.00,,,0.00,WUHU216HW,2013-04-02 22:55:00,
2013-04-02 16:00:00,63.9,54.0,30.21,North,0,0.0,0.0,70,0.00,,,0.00,WUHU216HW,2013-04-02 23:00:00,
2013-04-02 16:05:00,63.9,54.0,30.21,North,0,0.0,0.0,70,0.00,,,0.00,WUHU216HW,2013-04-02 23:05:00,
2013-04-02 16:10:00,63.5,54.0,30.21,North,0,0.0,0.0,71,0.00,,,0.00,WUHU216HW,2013-04-02 23:10:00,
2013-04-02 16:15:00,63.5,54.0,30.21,North,0,0.0,0.0,71,0.00,,,0.00,WUHU216HW,2013-04-02 23:15:00,
2013-04-02 16:20:00,63.7,54.2,30.21,North,0,0.0,0.0,71,0.00,,,0.00,WUHU216HW,2013-04-02 23:20:00,
2013-04-02 16:25:00,63.5,54.0,30.21,North,0,0.0,0.0,71,0.00,,,0.00,WUHU216HW,2013-04-02 23:25:00,
2013-04-02 16:30:00,63.4,53.8,30.20,North,0,0.0,0.0,71,0.00,,,0.00,WUHU216HW,2013-04-02 23:30:00,
2013-04-02 16:35:00,62.8,53.6,30.20,North,0,0.0,0.0,72,0.00,,,0.00,WUHU216HW,2013-04-02 23:35:00,
2013-04-02 16:40:00,62.3,53.1,30.20,North,0,0.0,0.0,72,0.00,,,0.00,WUHU216HW,2013-04-02 23:40:00,
2013-04-02 16:45:00,62.1,53.0,30.20,North,0,0.0,0.0,72,0.00,,,0.00,WUHU216HW,2013-04-02 23:45:00,
2013-04-02 16:50:00,62.1,53.4,30.20,North,0,0.0,0.0,73,0.00,,,0.00,WUHU216HW,2013-04-02 23:50:00,
2013-04-02 16:55:00,62.3,53.5,30.20,North,0,0.0,0.0,73,0.00,,,0.00,WUHU216HW,2013-04-02 23:55:00,
2013-04-02 17:01:00,61.9,53.2,30.20,North,0,0.0,0.0,73,0.00,,,0.00,WUHU216HW,2013-04-03 00:01:00,
2013-04-02 17:06:00,61.7,53.4,30.21,North,0,0.0,0.0,74,0.00,,,0.00,WUHU216HW,2013-04-03 00:06:00,
2013-04-02 17:12:00,61.6,53.2,30.21,North,0,0.0,0.0,74,0.00,,,0.00,WUHU216HW,2013-04-03 00:12:00,
2013-04-02 17:17:00,60.7,52.7,30.20,North,0,0.0,0.0,75,0.00,,,0.00,WUHU216HW,2013-04-03 00:17:00,
2013-04-02 17:22:00,60.3,52.7,30.20,North,0,0.0,0.0,76,0.00,,,0.00,WUHU216HW,2013-04-03 00:22:00,
2013-04-02 17:27:00,59.9,52.7,30.20,North,0,0.0,0.0,77,0.00,,,0.00,WUHU216HW,2013-04-03 00:27:00,
2013-04-02 17:32:00,59.6,52.7,30.20,North,0,0.0,0.0,78,0.00,,,0.00,WUHU216HW,2013-04-03 00:32:00,
2013-04-02 17:37:00,59.4,52.6,30.20,North,0,0.0,0.0,78,0.00,,,0.00,WUHU216HW,2013-04-03 00:37:00,
2013-04-02 17:42:00,59.0,52.6,30.20,North,0,0.0,0.0,79,0.00,,,0.00,WUHU216HW,2013-04-03 00:42:00,
2013-04-02 17:47:00,58.7,52.6,30.20,North,0,0.0,0.0,80,0.00,,,0.00,WUHU216HW,2013-04-03 00:47:00,
2013-04-02 17:53:00,58.3,52.6,30.20,North,0,0.0,0.0,81,0.00,,,0.00,WUHU216HW,2013-04-03 00:53:00,
2013-04-02 17:58:00,58.1,52.4,30.20,North,0,0.0,0.0,81,0.00,,,0.00,WUHU216HW,2013-04-03 00:58:00,
2013-04-02 18:03:00,57.8,52.3,30.20,North,0,0.0,0.0,82,0.00,,,0.00,WUHU216HW,2013-04-03 01:03:00,
2013-04-02 18:08:00,57.4,52.3,30.20,North,0,0.0,0.0,83,0.00,,,0.00,WUHU216HW,2013-04-03 01:08:00,
2013-04-02 18:13:00,57.2,52.1,30.20,North,0,0.0,0.0,83,0.00,,,0.00,WUHU216HW,2013-04-03 01:13:00,
2013-04-02 18:18:00,56.9,52.0,30.20,North,0,0.0,0.0,84,0.00,,,0.00,WUHU216HW,2013-04-03 01:18:00,
2013-04-02 18:23:00,56.9,52.0,30.21,North,0,0.0,0.0,84,0.00,,,0.00,WUHU216HW,2013-04-03 01:23:00,
2013-04-02 18:28:00,56.5,52.0,30.21,North,0,0.0,0.0,85,0.00,,,0.00,WUHU216HW,2013-04-03 01:28:00,
2013-04-02 18:33:00,56.3,51.8,30.20,North,0,0.0,0.0,85,0.00,,,0.00,WUHU216HW,2013-04-03 01:33:00,
2013-04-02 18:38:00,56.3,51.8,30.20,North,0,0.0,0.0,85,0.00,,,0.00,WUHU216HW,2013-04-03 01:38:00,
2013-04-02 18:43:00,56.2,52.0,30.20,North,0,0.0,0.0,86,0.00,,,0.00,WUHU216HW,2013-04-03 01:43:00,
2013-04-02 18:48:00,55.8,51.7,30.20,North,0,0.0,0.0,86,0.00,,,0.00,WUHU216HW,2013-04-03 01:48:00,
2013-04-02 18:53:00,55.6,51.5,30.20,North,0,0.0,0.0,86,0.00,,,0.00,WUHU216HW,2013-04-03 01:53:00,
2013-04-02 18:58:00,55.1,51.2,30.20,North,0,0.0,0.0,87,0.00,,,0.00,WUHU216HW,2013-04-03 01:58:00,
2013-04-02 19:03:00,54.9,51.4,30.20,North,0,0.0,0.0,88,0.00,,,0.00,WUHU216HW,2013-04-03 02:03:00,
2013-04-02 19:08:00,54.4,51.2,30.20,North,0,0.0,0.0,89,0.00,,,0.00,WUHU216HW,2013-04-03 02:08:00,
2013-04-02 19:13:00,54.0,50.9,30.19,North,0,0.0,0.0,89,0.00,,,0.00,WUHU216HW,2013-04-03 02:13:00,
2013-04-02 19:18:00,53.8,50.9,30.20,North,0,0.0,0.0,90,0.00,,,0.00,WUHU216HW,2013-04-03 02:18:00,
2013-04-02 19:23:00,53.8,50.9,30.20,North,0,0.0,0.0,90,0.00,,,0.00,WUHU216HW,2013-04-03 02:23:00,
2013-04-02 19:28:00,53.6,51.0,30.19,North,0,0.0,0.0,91,0.00,,,0.00,WUHU216HW,2013-04-03 02:28:00,
2013-04-02 19:33:00,53.5,50.9,30.20,North,0,0.0,0.0,91,0.00,,,0.00,WUHU216HW,2013-04-03 02:33:00,
2013-04-02 19:38:00,53.1,50.8,30.20,North,0,0.0,0.0,92,0.00,,,0.00,WUHU216HW,2013-04-03 02:38:00,
2013-04-02 19:43:00,52.9,50.6,30.20,North,0,0.0,0.0,92,0.00,,,0.00,WUHU216HW,2013-04-03 02:43:00,
2013-04-02 19:48:00,52.7,50.4,30.21,North,0,0.0,0.0,92,0.00,,,0.00,WUHU216HW,2013-04-03 02:48:00,
2013-04-02 19:53:00,52.6,50.2,30.21,North,0,0.0,0.0,92,0.00,,,0.00,WUHU216HW,2013-04-03 02:53:00,
2013-04-02 19:58:00,52.2,49.9,30.21,North,0,0.0,0.0,92,0.00,,,0.00,WUHU216HW,2013-04-03 02:58:00,
2013-04-02 20:03:00,52.0,49.7,30.21,North,0,0.0,0.0,92,0.00,,,0.00,WUHU216HW,2013-04-03 03:03:00,
2013-04-02 20:08:00,51.8,49.9,30.21,North,0,0.0,0.0,93,0.00,,,0.00,WUHU216HW,2013-04-03 03:08:00,
2013-04-02 20:13:00,51.8,49.9,30.21,North,0,0.0,0.0,93,0.00,,,0.00,WUHU216HW,2013-04-03 03:13:00,
2013-04-02 20:18:00,51.8,49.9,30.21,North,0,0.0,0.0,93,0.00,,,0.00,WUHU216HW,2013-04-03 03:18:00,
2013-04-02 20:23:00,51.7,49.7,30.21,North,0,0.0,0.0,93,0.00,,,0.00,WUHU216HW,2013-04-03 03:23:00,
2013-04-02 20:29:00,51.7,49.7,30.22,North,0,0.0,0.0,93,0.00,,,0.00,WUHU216HW,2013-04-03 03:29:00,
2013-04-02 20:34:00,51.5,49.8,30.22,North,0,0.0,0.0,94,0.00,,,0.00,WUHU216HW,2013-04-03 03:34:00,
2013-04-02 20:39:00,51.3,49.3,30.22,North,0,0.0,0.0,93,0.00,,,0.00,WUHU216HW,2013-04-03 03:39:00,
2013-04-02 20:44:00,51.1,49.2,30.22,North,0,0.0,0.0,93,0.00,,,0.00,WUHU216HW,2013-04-03 03:44:00,
2013-04-02 20:49:00,50.9,49.2,30.23,North,0,0.0,0.0,94,0.00,,,0.00,WUHU216HW,2013-04-03 03:49:00,
2013-04-02 20:54:00,50.9,49.2,30.22,North,0,0.0,0.0,94,0.00,,,0.00,WUHU216HW,2013-04-03 03:54:00,
2013-04-02 20:59:00,50.8,49.1,30.22,North,0,0.0,0.0,94,0.00,,,0.00,WUHU216HW,2013-04-03 03:59:00,
2013-04-02 21:04:00,50.9,49.2,30.22,North,0,0.0,0.0,94,0.00,,,0.00,WUHU216HW,2013-04-03 04:04:00,
2013-04-02 21:09:00,50.9,49.2,30.22,North,0,0.0,0.0,94,0.00,,,0.00,WUHU216HW,2013-04-03 04:09:00,
2013-04-02 21:14:00,50.9,49.2,30.23,North,0,0.0,0.0,94,0.00,,,0.00,WUHU216HW,2013-04-03 04:14:00,
2013-04-02 21:19:00,50.9,49.2,30.23,North,0,0.0,0.0,94,0.00,,,0.00,WUHU216HW,2013-04-03 04:19:00,
2013-04-02 21:24:00,50.8,49.1,30.23,North,0,0.0,0.0,94,0.00,,,0.00,WUHU216HW,2013-04-03 04:24:00,
2013-04-02 21:29:00,50.6,48.9,30.24,North,0,0.0,0.0,94,0.00,,,0.00,WUHU216HW,2013-04-03 04:29:00,
2013-04-02 21:34:00,50.6,48.9,30.24,North,0,0.0,0.0,94,0.00,,,0.00,WUHU216HW,2013-04-03 04:34:00,
2013-04-02 21:39:00,50.8,49.1,30.24,North,0,0.0,0.0,94,0.00,,,0.00,WUHU216HW,2013-04-03 04:39:00,
2013-04-02 21:44:00,50.8,49.3,30.24,North,0,0.0,0.0,95,0.00,,,0.00,WUHU216HW,2013-04-03 04:44:00,
2013-04-02 21:49:00,50.8,49.3,30.25,North,0,0.0,0.0,95,0.00,,,0.00,WUHU216HW,2013-04-03 04:49:00,
2013-04-02 21:54:00,50.6,49.1,30.25,North,0,0.0,0.0,95,0.00,,,0.00,WUHU216HW,2013-04-03 04:54:00,
2013-04-02 21:59:00,50.6,49.1,30.25,North,0,0.0,0.0,95,0.00,,,0.00,WUHU216HW,2013-04-03 04:59:00,
2013-04-02 22:04:00,50.4,49.0,30.25,North,0,0.0,0.0,95,0.00,,,0.00,WUHU216HW,2013-04-03 05:04:00,
2013-04-02 22:09:00,50.2,48.8,30.25,North,0,0.0,0.0,95,0.00,,,0.00,WUHU216HW,2013-04-03 05:09:00,
2013-04-02 22:14:00,50.2,48.8,30.25,North,0,0.0,0.0,95,0.00,,,0.00,WUHU216HW,2013-04-03 05:14:00,
2013-04-02 22:19:00,50.2,48.8,30.24,North,0,0.0,0.0,95,0.00,,,0.00,WUHU216HW,2013-04-03 05:19:00,
2013-04-02 22:24:00,50.2,48.8,30.24,North,0,0.0,0.0,95,0.00,,,0.00,WUHU216HW,2013-04-03 05:24:00,
2013-04-02 22:29:00,50.0,48.6,30.24,North,0,0.0,0.0,95,0.00,,,0.00,WUHU216HW,2013-04-03 05:29:00,
2013-04-02 22:34:00,50.2,48.8,30.24,North,0,0.0,0.0,95,0.00,,,0.00,WUHU216HW,2013-04-03 05:34:00,
2013-04-02 22:39:00,50.2,48.8,30.24,North,0,0.0,0.0,95,0.00,,,0.00,WUHU216HW,2013-04-03 05:39:00,
2013-04-02 22:44:00,50.2,48.8,30.24,North,0,0.0,0.0,95,0.00,,,0.00,WUHU216HW,2013-04-03 05:44:00,
2013-04-02 22:49:00,50.2,49.1,30.24,North,0,0.0,0.0,96,0.00,,,0.00,WUHU216HW,2013-04-03 05:49:00,
2013-04-02 22:54:00,50.2,48.8,30.24,North,0,0.0,0.0,95,0.00,,,0.00,WUHU216HW,2013-04-03 05:54:00,
2013-04-02 22:59:00,50.2,49.1,30.24,North,0,0.0,0.0,96,0.00,,,0.00,WUHU216HW,2013-04-03 05:59:00,
2013-04-02 23:04:00,50.0,48.6,30.25,North,0,0.0,0.0,95,0.00,,,0.00,WUHU216HW,2013-04-03 06:04:00,
2013-04-02 23:09:00,50.0,48.6,30.25,North,0,0.0,0.0,95,0.00,,,0.00,WUHU216HW,2013-04-03 06:09:00,
2013-04-02 23:14:00,50.0,48.9,30.25,North,0,0.0,0.0,96,0.00,,,0.00,WUHU216HW,2013-04-03 06:14:00,
2013-04-02 23:19:00,49.9,48.7,30.25,North,0,0.0,0.0,96,0.00,,,0.00,WUHU216HW,2013-04-03 06:19:00,
2013-04-02 23:24:00,49.9,48.7,30.24,North,0,0.0,0.0,96,0.00,,,0.00,WUHU216HW,2013-04-03 06:24:00,
2013-04-02 23:29:00,50.0,48.9,30.24,North,0,0.0,0.0,96,0.00,,,0.00,WUHU216HW,2013-04-03 06:29:00,
2013-04-02 23:34:00,49.9,48.7,30.24,North,0,0.0,0.0,96,0.00,,,0.00,WUHU216HW,2013-04-03 06:34:00,
2013-04-02 23:39:00,49.9,48.7,30.24,North,0,0.0,0.0,96,0.00,,,0.00,WUHU216HW,2013-04-03 06:39:00,
2013-04-02 23:44:00,49.9,48.7,30.24,North,0,0.0,0.0,96,0.00,,,0.00,WUHU216HW,2013-04-03 06:44:00,
2013-04-02 23:49:00,49.9,48.7,30.24,North,0,0.0,0.0,96,0.00,,,0.00,WUHU216HW,2013-04-03 06:49:00,
2013-04-02 23:54:00,49.9,48.7,30.23,North,0,0.0,0.0,96,0.00,,,0.00,WUHU216HW,2013-04-03 06:54:00,
2013-04-02 23:59:00,49.7,48.2,30.23,North,0,0.0,0.0,95,0.00,,,0.00,WUHU216HW,2013-04-03 06:59:00,